Regional Weather Roundup
Issued by NWS Boston, MA

Current Version | Previous Version | Text Only | Print | Product List | Glossary On
Versions: 1 2 3 4 5 6 7 8 9 10 11 12 13 14 15 16 17 18 19 20 21 22 23 24 25 26 27
000 ASUS41 KBOX 151210 RWRBOX REGIONAL WEATHER ROUNDUP NATIONAL WEATHER SERVICE TAUNTON MA 700 AM EST FRI DEC 15 2017 NOTE: "FAIR" INDICATES FEW OR NO CLOUDS BELOW 12,000 FEET WITH NO SIGNIFICANT WEATHER AND/OR OBSTRUCTIONS TO VISIBILITY. MAZALL-151300- EASTERN MASSACHUSETTS CITY SKY/WX TMP DP RH WIND PRES REMARKS BOSTON CLOUDY 19 7 59 W7 30.08R WCI 10 6HR MIN TEMP: 17; 6HR MAX TEMP: 19; BEVERLY MOCLDY 15 6 67 SW3 30.05S LAWRENCE CLEAR 15 6 67 S5 30.07R WCI 8 BEDFORD PTCLDY 10 4 76 SW5 30.05R WCI 2 BLUE HILL N/A 14 5 67 SW7 30.02R WCI 4 NORWOOD PTCLDY 11 8 88 CALM 30.09R MARSHFIELD PTCLDY 14 7 73 CALM 30.09R PLYMOUTH PTCLDY 11 6 81 CALM 30.09R TAUNTON PTCLDY 7 4 87 CALM 30.09R NEW BEDFORD CLEAR 9 8 96 CALM 30.10R $$ MAZALL-151300- CAPE COD AND THE ISLANDS CITY SKY/WX TMP DP RH WIND PRES REMARKS FALMOUTH CLEAR 12 5 73 W3 30.10R HYANNIS CLEAR 15 6 67 W6 30.08R WCI 6 CHATHAM CLEAR 14 8 77 W3 30.10R PROVINCETOWN PTCLDY 21 15 78 W8 30.09R WCI 11 NANTUCKET CLEAR 21 11 65 NW5 30.09R WCI 15 MARTHAS VNYRD CLEAR 9 7 92 NW3 30.09S $$ MAZALL-151300- CENTRAL AND WESTERN MASSACHUSETTS CITY SKY/WX TMP DP RH WIND PRES REMARKS WORCESTER CLOUDY 13 5 70 W12 29.98R WCI -1 6HR MIN TEMP: 11; 6HR MAX TEMP: 13; FITCHBURG CLEAR 17 8 67 NW12 30.04R WCI 4 ORANGE NOT AVBL SPRINGFIELD PTCLDY 13 8 80 CALM 30.06R WESTFIELD CLOUDY 12 7 80 CALM 30.07S NORTH ADAMS PTCLDY 7 4 87 CALM 30.04R PITTSFIELD CLOUDY 4 -1 80 CALM 29.98R $$ RIZALL-151300- RHODE ISLAND CITY SKY/WX TMP DP RH WIND PRES REMARKS PROVIDENCE MOCLDY 11 5 77 SW5 30.10R WCI 3 6HR MIN TEMP: 11; 6HR MAX TEMP: 18; NEWPORT CLEAR 12 8 84 CALM 30.09R BLOCK ISLAND CLEAR 20 12 71 N6 30.10 WCI 12 SMITHFIELD CLOUDY 9 6 88 CALM 30.06R WESTERLY CLEAR 12 7 80 CALM 30.10S $$ CTZALL-151300- CONNECTICUT CITY SKY/WX TMP DP RH WIND PRES REMARKS BRADLEY INTL CLOUDY 11 7 84 CALM 30.08S 6HR MIN TEMP: 9; 6HR MAX TEMP: 16; HARTFORD CLOUDY 12 7 80 CALM 30.11R BRIDGEPORT CLEAR 18 6 59 N6 30.11S WCI 10 DANBURY CLOUDY 9 5 84 W3 30.08R GROTON CLEAR 16 5 62 CALM 30.10S NEW HAVEN CLEAR 13 4 67 CALM 30.11R CHESTER FAIR 12 3 67 CALM 30.06F MERIDEN CLEAR 7 3 84 CALM 30.10S WILLIMANTIC CLOUDY 7 3 84 CALM 30.09S OXFORD CLEAR 6 3 87 CALM 30.05R $$ MEZ002-015-021-024-NHZ003-005-008-011-012-014-VTZ005-008-151300- NORTHERN NEW ENGLAND CITY SKY/WX TMP DP RH WIND PRES REMARKS PORTLAND ME PTCLDY 8 1 73 NW3 30.02S 6HR MIN TEMP: 8; 6HR MAX TEMP: 14; BANGOR ME PTCLDY 7 -2 66 W7 29.97R WCI -5 CONCORD NH CLEAR 1 -4 79 CALM 30.03R MANCHESTER NH PTCLDY 11 3 70 VRB3 30.02S NASHUA NH CLEAR 3 0 87 CALM 30.05R PORTSMOUTH NH PTCLDY 10 2 70 W3 30.03R JAFFREY NH CLEAR 6 4 91 S7 29.98R WCI -6 KEENE NH CLEAR -3 -6 87 S3 30.05R BURLINGTON VT CLEAR -1 -6 79 CALM 30.01S MT. WASHINGTON PTCLDY -8 -15 71 W62G69 N/A WCI -45 $$ NYZ052-076-151300- EASTERN NEW YORK CITY SKY/WX TMP DP RH WIND PRES REMARKS ALBANY MOCLDY 9 4 80 CALM 30.07S 6HR MIN TEMP: 7; 6HR MAX TEMP: 13; NEW YORK CITY MOCLDY 23 9 55 CALM 30.11R 6HR MIN TEMP: 23; 6HR MAX TEMP: 24; $$ ANZALL-151300- MARINE OBSERVATIONS STATION/POSITION TIME TEMP WIND PRES VSBY WAVE AIR SEA DIR/SP/G HT/PER (UTC) (F) (DEG/KT/KT) (MB) (MI) (FT/S) BOSTON BUOY 1150 24 47 270/ 10/ 14 1017.7R 2/ 3 BUZZARDS BAY 1100 22 310/ 8/ 10 1019.6R NANTUCKET SOUND 1150 23 42 320/ 12/ 16 1018.8R 1/ 3 MASS BAY-STELLWA 1104 23 47 300/ 16/ 19 1017.3R 2/ 3 ISLE OF SHOALS 1100 18 270/ 14/ 17 1016.9R S OF BLOCK IS 1113 53 N/A 5/ 9 $$ ......................KEY......................... SKY/WX - SKY CONDITION/PRESENT WEATHER TMP - TEMPERATURE IN FAHRENHEIT DWPT - DEWPOINT IN FAHRENHEIT RH - RELATIVE HUMIDITY IN PERCENT WIND - DIRECTION AND SPEED IN MPH PRES - MEAN SEA LEVEL PRESSURE IN INCHES OF HG WCI - WIND CHILL INDEX VSB - VISIBILITY IN MILES HX - HEAT INDEX TC - TEMPERATURE IN CELSIUS VRB - VARIABLE WIND DIRECTION N/A - NOT AVAILABLE

USA.gov is the U.S. government's official web portal to all federal, state and local government web resources and services.